Tracking 19794 objects as of 21-Jul-2019
HD Live streaming from Space Station
objects crossing your sky now

FENGYUN 1C DEB

Track FENGYUN 1C DEB now!
10-day predictions


NORAD ID: 32416
Int'l Code: 1999-025DAC
Perigee: 852.9 km
Apogee: 1,219.3 km
Inclination: 100.8 °
Period: 105.7 minutes
Semi major axis: 7407 km
RCS: 0.0112 m2 (small)
Launch date: May 10, 1999
Source: People's Republic of China (PRC)
Launch site: Taiyaun Space Center, China (TSC)

Note: This is SATELLITE DEBRIS
aabbcc
Your satellite tracking list
Your tracking list is empty




NASA's NSSDC Master Catalog

Two Line Element Set (TLE):
1 32416U 99025DAC 19201.66212188  .00000206  00000-0  27648-3 0  9996
2 32416 100.8228   2.7140 0247330 213.6594 207.3198 13.61851245595782
Source of the keplerian elements: AFSPC